GuoyuanV9

operational
NORAD ID: 44538 Int'l Des: 2019-060 Owner: ZHUORB Country: CN
LEOCIRCULARRETROGRADESSO

关于 GuoyuanV9

正在加载描述...

实时位置

正在加载3D地球...

即将过境

高度历史

Altitude vs Time

uPlot chart will show altitude changes over time

两行轨道根数

1 44538U 19060E 26061.66473402 .00032632 00000-0 73297-3 0 9994
2 44538 97.5235 207.3419 0008202 334.6356 25.4488 15.43264421359612
Epoch: Mar 2, 2026 • Age: 39 hours

当前状态

高度 461.2 km
速度 7.64 km/s
星下点 -80.35°S, 126.51°W
发射日期 Sep 19, 2019
运行时间 6.4 years
类型 other

技术详情

分类 Payload
质量 69.00 kg
干质量 69.00 kg
总质量 69.00 kg
长度 0.50 m
直径 0.40 m
跨度 1.00 m
形状 Box
制造商 HARB
平台类型 OHS-1
阶段状态 In Orbit
所有者/国家 ZHUORB/CN

大型星座

Loading constellations...